Location: Lombard
(41.8800°N, 88.0080°W)
Time: 10:16:11
(UTC-05:00)

Tiros 1 - Pass Details

Date: 14 February 2023
Orbit: 628 x 662 km, 48.4° (Epoch: 20 March)

Event Time Altitude Azimuth Distance (km) Brightness Sun altitude
Rises 19:56:05 0° 237° (WSW) 2,909 11.2 -28.9°
Reaches altitude 10° 19:58:24 10° 237° (WSW) 2,000 10.2 -29.3°
Enters shadow 20:00:53 32° 234° (SW) 1,082 8.6 -29.8°
